TimeCDT,TemperatureF,Dew PointF,Humidity,Sea Level PressureIn,VisibilityMPH,Wind Direction,Wind SpeedMPH,Gust SpeedMPH,PrecipitationIn,Events,Conditions,WindDirDegrees,DateUTC
12:53 AM,54.0,52.0,93,30.15,9.0,Calm,Calm,-,N/A,,Mostly Cloudy,0,2013-10-28 05:53:00
1:53 AM,52.0,50.0,93,30.14,6.0,Calm,Calm,-,N/A,,Clear,0,2013-10-28 06:53:00
2:53 AM,50.0,48.9,96,30.14,6.0,Calm,Calm,-,N/A,,Partly Cloudy,0,2013-10-28 07:53:00
3:53 AM,51.1,48.0,89,30.15,7.0,Calm,Calm,-,N/A,,Clear,0,2013-10-28 08:53:00
4:53 AM,48.9,46.9,93,30.15,5.0,Calm,Calm,-,N/A,,Clear,0,2013-10-28 09:53:00
5:53 AM,50.0,48.0,93,30.17,6.0,Calm,Calm,-,N/A,,Mostly Cloudy,0,2013-10-28 10:53:00
6:53 AM,52.0,48.9,89,30.19,8.0,Calm,Calm,-,N/A,,Overcast,0,2013-10-28 11:53:00
7:53 AM,54.0,51.1,90,30.22,8.0,Calm,Calm,-,N/A,,Mostly Cloudy,0,2013-10-28 12:53:00
8:53 AM,59.0,53.1,81,30.24,10.0,ENE,3.5,-,N/A,,Clear,60,2013-10-28 13:53:00
9:53 AM,69.1,54.0,58,30.25,10.0,Variable,3.5,-,N/A,,Clear,0,2013-10-28 14:53:00
10:53 AM,75.9,55.0,48,30.25,10.0,Variable,4.6,-,N/A,,Clear,0,2013-10-28 15:53:00
11:53 AM,75.9,51.1,42,30.23,10.0,Calm,Calm,-,N/A,,Clear,0,2013-10-28 16:53:00
12:53 PM,80.1,52.0,38,30.21,10.0,South,3.5,-,N/A,,Clear,190,2013-10-28 17:53:00
1:53 PM,80.1,50.0,35,30.18,10.0,NNW,5.8,-,N/A,,Clear,340,2013-10-28 18:53:00
2:53 PM,81.0,50.0,34,30.17,10.0,Calm,Calm,-,N/A,,Clear,0,2013-10-28 19:53:00
3:53 PM,81.0,51.1,35,30.17,10.0,Calm,Calm,-,N/A,,Clear,0,2013-10-28 20:53:00
4:53 PM,78.1,53.1,42,30.18,10.0,South,5.8,-,N/A,,Clear,180,2013-10-28 21:53:00
5:53 PM,72.0,54.0,53,30.19,10.0,Calm,Calm,-,N/A,,Clear,0,2013-10-28 22:53:00
6:53 PM,63.0,55.0,75,30.20,10.0,Calm,Calm,-,N/A,,Clear,0,2013-10-28 23:53:00
7:53 PM,61.0,55.0,81,30.22,10.0,Calm,Calm,-,N/A,,Clear,0,2013-10-29 00:53:00
8:53 PM,57.9,55.0,90,30.22,9.0,Calm,Calm,-,N/A,,Clear,0,2013-10-29 01:53:00
9:53 PM,55.9,53.1,90,30.24,8.0,Calm,Calm,-,N/A,,Clear,0,2013-10-29 02:53:00
10:53 PM,55.0,52.0,89,30.25,8.0,Calm,Calm,-,N/A,,Clear,0,2013-10-29 03:53:00
11:53 PM,53.1,51.1,93,30.24,7.0,Calm,Calm,-,N/A,,Clear,0,2013-10-29 04:53:00